Weather History for Vinton, IA

Change the Weather History Date:

Saturday, April 20, 2013

  Actual Average Record
Temperature  
Mean Temperature 36 °F -  
Max Temperature 47 °F 62 °F 88 °F (1987)
Min Temperature 25 °F 43 °F 24 °F (1956)
Degree Days  
Heating Degree Days 30    
Moisture  
Dew Point 21 °F    
Average Humidity 59    
Maximum Humidity 88    
Minimum Humidity 28    
Precipitation  
Precipitation 0.00 in - - ()
Sea Level Pressure  
Sea Level Pressure 30.22 in    
Wind  
Wind Speed 6 mph (WNW)    
Max Wind Speed 10 mph    
Max Gust Speed 16 mph    
Visibility 10 miles    
Events      
Averages and records for this station are not official NWS values.
T = Trace of Precipitation, MM = Missing Value Source: NWS Daily Summary

Daily Weather History Graph

Daily Weather History Graph

Search for Another Location

Airport:

Trip Planner

Search our weather history database for the weather conditions in past years. The results will help you decide how hot, cold, wet, or windy it might be!

Date:

Astronomy

Apr. 20, 2013 Rise Set
Actual Time 6:19 AM CDT 7:55 PM CDT
Civil Twilight 5:49 AM CDT 8:25 PM CDT
Nautical Twilight 5:13 AM CDT 9:00 PM CDT
Astronomical Twilight 4:35 AM CDT 9:39 PM CDT
Moon 2:34 PM CDT (4/20) 3:14 AM CDT (4/20)
Length of Visible Light 14h 35m
Length of Day
13h 36m
Waxing Gibbous, 71% of the Moon is Illuminated
Apr 20
Waxing Gibbous
Apr 25
Full
May 2
Last Quarter
May 9
New
May 17
First Quarter

Hourly Weather History & Observations

Time (CDT) Temp. Windchill Dew Point Humidity Pressure Visibility Wind Dir Wind Speed Gust Speed Precip Events Conditions
12:15 AM 30.0 °F 21.1 °F 24.6 °F 80% 30.04 in 10.0 mi WNW 10.4 mph - N/A   Clear
12:35 AM 28.9 °F 19.8 °F 23.7 °F 81% 30.04 in 10.0 mi WNW 10.4 mph 16.1 mph N/A   Clear
12:55 AM 28.0 °F 20.0 °F 23.2 °F 82% 30.05 in 10.0 mi WNW 8.1 mph - N/A   Clear
1:35 AM 27.5 °F 19.3 °F 23.2 °F 84% 30.07 in 10.0 mi WNW 8.1 mph - N/A   Clear
1:55 AM 27.5 °F 19.3 °F 23.4 °F 84% 30.06 in 10.0 mi WNW 8.1 mph - N/A   Clear
2:15 AM 27.5 °F 20.2 °F 23.5 °F 85% 30.07 in 10.0 mi WNW 6.9 mph - N/A   Clear
2:35 AM 27.5 °F 19.3 °F 23.7 °F 86% 30.07 in 10.0 mi WNW 8.1 mph - N/A   Clear
2:55 AM 27.5 °F 21.1 °F 23.9 °F 86% 30.07 in 10.0 mi WNW 5.8 mph - N/A   Clear
3:15 AM 27.5 °F 20.2 °F 23.9 °F 86% 30.08 in 10.0 mi WNW 6.9 mph - N/A   Clear
3:35 AM 27.5 °F 21.1 °F 23.9 °F 86% 30.09 in 10.0 mi WNW 5.8 mph - N/A   Clear
3:55 AM 27.5 °F 20.2 °F 23.9 °F 86% 30.10 in 10.0 mi WNW 6.9 mph - N/A   Clear
4:15 AM 27.5 °F 20.2 °F 23.9 °F 86% 30.10 in 10.0 mi West 6.9 mph - N/A   Clear
4:35 AM 27.5 °F 20.2 °F 23.9 °F 86% 30.11 in 10.0 mi West 6.9 mph - N/A   Clear
4:55 AM 27.5 °F 19.3 °F 23.9 °F 86% 30.11 in 10.0 mi WNW 8.1 mph - N/A   Clear
5:15 AM 27.5 °F 20.2 °F 23.9 °F 86% 30.12 in 10.0 mi WNW 6.9 mph - N/A   Clear
5:35 AM 27.5 °F 20.2 °F 24.3 °F 88% 30.13 in 10.0 mi NW 6.9 mph - N/A   Clear
5:55 AM 27.5 °F 20.2 °F 24.3 °F 88% 30.13 in 10.0 mi WNW 6.9 mph - N/A   Clear
6:15 AM 26.6 °F 20.0 °F 23.2 °F 87% 30.14 in 10.0 mi WNW 5.8 mph - N/A   Clear
6:35 AM 25.3 °F 18.5 °F 22.1 °F 87% 30.15 in 10.0 mi NW 5.8 mph - N/A   Clear
6:55 AM 27.5 °F 22.2 °F 23.9 °F 86% 30.16 in 10.0 mi WNW 4.6 mph - N/A   Clear
7:15 AM 27.5 °F 23.6 °F 23.5 °F 85% 30.18 in 10.0 mi West 3.5 mph - N/A   Clear
7:35 AM 27.5 °F 20.2 °F 23.0 °F 83% 30.19 in 10.0 mi WNW 6.9 mph - N/A   Clear
7:55 AM 28.8 °F 20.9 °F 23.4 °F 80% 30.20 in 10.0 mi NW 8.1 mph - N/A   Clear
8:15 AM 30.2 °F 22.6 °F 24.1 °F 78% 30.21 in 10.0 mi NNW 8.1 mph - N/A   Clear
8:35 AM 30.9 °F 23.5 °F 23.9 °F 75% 30.21 in 10.0 mi NNW 8.1 mph - N/A   Clear
8:55 AM 32.4 °F 25.3 °F 24.4 °F 73% 30.22 in 10.0 mi North 8.1 mph - N/A   Clear
9:15 AM 32.4 °F 26.0 °F 23.5 °F 70% 30.24 in 10.0 mi NNW 6.9 mph - N/A   Clear
9:35 AM 33.4 °F - 22.5 °F 64% 30.24 in 10.0 mi Calm Calm - N/A   Clear
9:55 AM 34.9 °F - 23.7 °F 64% 30.25 in 10.0 mi Calm Calm - N/A   Clear
10:15 AM 34.9 °F - 23.2 °F 62% 30.26 in 10.0 mi Calm Calm - N/A   Clear
10:35 AM 35.6 °F - 20.1 °F 53% 30.26 in 10.0 mi Calm Calm - N/A   Clear
10:55 AM 37.4 °F 33.8 °F 22.6 °F 55% 30.28 in 10.0 mi NW 4.6 mph - N/A   Scattered Clouds
11:15 AM 37.8 °F 32.5 °F 20.7 °F 50% 30.28 in 10.0 mi WNW 6.9 mph - N/A   Clear
11:35 AM 37.9 °F 34.4 °F 16.7 °F 42% 30.28 in 10.0 mi WNW 4.6 mph - N/A   Clear
11:55 AM 37.8 °F 34.2 °F 15.3 °F 40% 30.28 in 10.0 mi West 4.6 mph - N/A   Clear
12:15 PM 38.7 °F 33.6 °F 17.6 °F 43% 30.28 in 10.0 mi West 6.9 mph - N/A   Clear
12:35 PM 38.8 °F - 17.1 °F 41% 30.28 in 10.0 mi Calm Calm - N/A   Clear
12:55 PM 39.7 °F 37.6 °F 16.2 °F 38% 30.28 in 10.0 mi NNW 3.5 mph - N/A   Clear
1:15 PM 40.1 °F 34.7 °F 17.1 °F 39% 30.28 in 10.0 mi WNW 8.1 mph - N/A   Clear
1:35 PM 40.3 °F 38.2 °F 16.9 °F 39% 30.28 in 10.0 mi SW 3.5 mph - N/A   Clear
1:55 PM 41.5 °F 37.8 °F 15.3 °F 35% 30.28 in 10.0 mi West 5.8 mph - N/A   Clear
2:15 PM 40.6 °F - 15.4 °F 36% 30.28 in 10.0 mi Calm Calm - N/A   Clear
2:35 PM 43.0 °F 38.2 °F 15.4 °F 33% 30.28 in 10.0 mi West 8.1 mph - N/A   Clear
2:55 PM 42.4 °F 40.7 °F 15.4 °F 34% 30.28 in 10.0 mi WNW 3.5 mph - N/A   Clear
3:15 PM 42.4 °F 39.6 °F 15.4 °F 34% 30.27 in 10.0 mi North 4.6 mph - N/A   Clear
3:35 PM 45.0 °F - 16.5 °F 32% 30.27 in 10.0 mi Calm Calm - N/A   Clear
3:55 PM 45.0 °F - 15.3 °F 30% 30.27 in 10.0 mi Calm Calm - N/A   Clear
4:15 PM 45.0 °F 43.5 °F 14.7 °F 30% 30.26 in 10.0 mi NW 3.5 mph - N/A   Clear
4:35 PM 45.0 °F - 13.1 °F 28% 30.26 in 10.0 mi Calm Calm - N/A   Unknown
4:55 PM 46.4 °F - 16.5 °F 30% 30.26 in 10.0 mi Calm Calm - N/A   Clear
5:15 PM 45.7 °F - 15.4 °F 30% 30.26 in 10.0 mi Calm Calm - N/A   Clear
5:35 PM 45.1 °F - 15.1 °F 30% 30.26 in 10.0 mi Calm Calm - N/A   Clear
5:55 PM 46.4 °F 45.2 °F 17.6 °F 32% 30.26 in 10.0 mi ESE 3.5 mph - N/A   Clear
6:15 PM 45.0 °F 42.6 °F 16.5 °F 32% 30.26 in 10.0 mi East 4.6 mph - N/A   Clear
6:35 PM 43.5 °F - 15.3 °F 32% 30.27 in 10.0 mi Calm Calm - N/A   Clear
6:55 PM 42.4 °F 38.8 °F 16.2 °F 35% 30.27 in 10.0 mi East 5.8 mph - N/A   Clear
7:15 PM 41.2 °F 36.6 °F 18.9 °F 41% 30.27 in 10.0 mi East 6.9 mph - N/A   Clear
7:35 PM 40.3 °F 35.5 °F 21.2 °F 47% 30.28 in 10.0 mi East 6.9 mph - N/A   Clear
7:55 PM 40.1 °F 34.7 °F 22.1 °F 49% 30.28 in 10.0 mi East 8.1 mph - N/A   Clear
8:15 PM 38.7 °F 33.6 °F 21.6 °F 50% 30.29 in 10.0 mi East 6.9 mph - N/A   Clear
8:35 PM 38.7 °F 33.6 °F 23.4 °F 54% 30.29 in 10.0 mi ESE 6.9 mph - N/A   Clear
8:55 PM 38.3 °F 33.2 °F 24.1 °F 57% 30.29 in 10.0 mi ESE 6.9 mph - N/A   Clear
9:15 PM 38.7 °F 33.6 °F 23.7 °F 55% 30.30 in 10.0 mi ESE 6.9 mph - N/A   Clear
9:35 PM 38.7 °F 34.3 °F 23.7 °F 55% 30.31 in 10.0 mi SE 5.8 mph - N/A   Scattered Clouds
9:55 PM 37.4 °F 32.8 °F 22.8 °F 56% 30.32 in 10.0 mi SE 5.8 mph - N/A   Clear
10:15 PM 37.4 °F 32.1 °F 22.1 °F 54% 30.32 in 10.0 mi SSE 6.9 mph - N/A   Clear
10:35 PM 37.4 °F 32.8 °F 23.4 °F 57% 30.33 in 10.0 mi SSE 5.8 mph - N/A   Clear
10:55 PM 37.4 °F 32.8 °F 23.0 °F 56% 30.34 in 10.0 mi SSE 5.8 mph - N/A   Mostly Cloudy
11:15 PM 37.8 °F 33.3 °F 23.5 °F 57% 30.34 in 10.0 mi SE 5.8 mph - N/A   Overcast
11:35 PM 37.9 °F 32.7 °F 24.1 °F 57% 30.33 in 10.0 mi SE 6.9 mph - N/A   Overcast
11:55 PM 37.4 °F 32.1 °F 24.6 °F 60% 30.32 in 10.0 mi SE 6.9 mph - N/A   Scattered Clouds